Zurück zum Katalog

SUPERBIRD 7

AktivKommunikationGEO
NORAD 33274·PAYLOAD·🇯🇵 Japan

Gestartet Aug 14, 2008 von Guiana Space Centre

Loading…

TLE

AktuellSource: Space-Track

Epoche: Sep 14, 2026, 12:44 UTC

1 33274U 08038A   26257.53076205 -.00000313  00000-0  00000-0 0  9996
2 33274   2.5854  80.0701 0005774  67.5883 172.9504  1.00272715106629

Verfolge SUPERBIRD 7 in Echtzeit mit AllMySat

Download on the App Store